User: anonymous   Login
Location: Unspecified
(0.0000°N, 0.0000°E)
Time: 21:47:50
(UTC+00:00)
Language:

ETS 8 - Orbit

View from above orbital plane
View from above orbital plane
View from above satellite
View from above satellite

Ground track
Ground track

The orbit data is extracted from the following two-line orbital elements,

1 29656U 06059A   15243.40554135 -.00000263  00000-0  00000+0 0  9991
2 29656 004.3654 063.3334 0005685 088.4994 119.1377 01.00272570 31906
Epoch (UTC): 31 August 2015 09:43:58
Eccentricity: 0.0005685
inclination: 4.3654°
perigee height: 35762 km
apogee height: 35810 km
right ascension of ascending node: 63.3334°
argument of perigee: 88.4994°
revolutions per day: 1.00272570
mean anomaly at epoch: 119.1377°
orbit number at epoch: 3190

The dashed part of the orbit path shows where the satellite is in the earth's shadow,  

DLR